Location: Mannheim
(49.4880°N, 8.4650°E)
Time: 21:24:07
(UTC+02:00)

ISS - Pass Details

Date: 25 August 2024
Orbit: 415 x 417 km, 51.6° (Epoch: 12 June)

Event Time Altitude Azimuth Distance (km) Brightness Sun altitude
Exits shadow 03:49:59 19° 118° (ESE) 1,113 -1.5 -22.3°
Drops below altitude 10° 03:51:48 10° 90° (E) 1,570 -0.4 -22.1°
Enters shadow 04:47:20 -71° 248° (WSW) 12,465 3.6 -15.8°
Maximum altitude 05:25:47 82° 159° (SSE) 454 -3.6 -10.7°
